Location: Zwardon
(49.5170°N, 18.9830°E)
Time: 08:33:51
(UTC+01:00)

X-37B - Pass Details

Date: 11 December 2022
Orbit: 277 x 277 km, 45.0° (Epoch: 01 November)

Event Time Altitude Azimuth Distance (km) Brightness Sun altitude
Rises 17:00:01 0° 233° (SW) 1,908 5.8 -11.6°
Reaches altitude 10° 17:02:13 10° 213° (SSW) 1,097 3.8 -11.9°
Maximum altitude 17:04:03 19° 164° (SSE) 750 2.1 -12.2°
Enters shadow 17:05:18 14° 126° (SE) 928 2.2 -12.4°
